Voltar ao catálogo

OPS 4682 DEB

AtivoPO
NORAD 38409·DEBRIS·🇺🇸 United States

Lançado Apr 3, 1965 de Vandenberg Space Force Base

Loading…

Próximas Passagens (próximas 24 horas)

TLE

AtualizadoSource: Space-Track

Época: Sep 14, 2026, 01:32 UTC

1 38409U 65027DN  26257.06416849  .00000478  00000-0  15754-2 0  9997
2 38409  90.2947  29.4805 0037983 114.5747 245.9340 12.99209581199758

Acompanhe OPS 4682 DEB em tempo real com AllMySat

Download on the App Store